This is the latest recevied weather packets stored in our database for station/object W7MB. If no packets are shown the sender has not sent any weather packets the latest 10 day(s).
| Time | Temp. | Humidity | Pressure | Rain* | Wind** | Luminosity | Snow |
|---|---|---|---|---|---|---|---|
| 1778083924 | 15° C | 74% | 1014.7 hPa | 0 mm | - | - | - |
| 1778083563 | 14.44° C | 76% | 1014.7 hPa | 0 mm | - | - | - |
| 1778083204 | 13.89° C | 77% | 1014.6 hPa | 0 mm | - | - | - |
| 1778082843 | 13.33° C | 80% | 1014.7 hPa | 0 mm | - | - | - |
| 1778082483 | 12.78° C | 81% | 1014.6 hPa | 0 mm | - | - | - |
| 1778082124 | 12.22° C | 81% | 1014.7 hPa | 0 mm | - | - | - |
| 1778081763 | 11.11° C | 65% | 1014.8 hPa | 0 mm | - | - | - |
| 1778081403 | 10.56° C | 60% | 1014.9 hPa | 0 mm | - | - | - |
| 1778081043 | 10° C | 56% | 1015 hPa | 0 mm | - | - | - |
| 1778080683 | 9.44° C | 62% | 1015.1 hPa | 0 mm | - | - | - |
| 1778080323 | 8.89° C | 61% | 1015 hPa | 0 mm | - | - | - |
| 1778079963 | 8.33° C | 61% | 1015.1 hPa | 0 mm | - | - | - |
| 1778079604 | 7.78° C | 61% | 1015.2 hPa | 0 mm | - | - | - |
| 1778079243 | 7.78° C | 62% | 1015.1 hPa | 0 mm | - | - | - |
| 1778078884 | 7.22° C | 61% | 1015.1 hPa | 0 mm | - | - | - |
| 1778078523 | 6.67° C | 63% | 1015.1 hPa | 0 mm | - | - | - |
| 1778078163 | 6.67° C | 65% | 1015.1 hPa | 0 mm | - | - | - |
| 1778077803 | 6.67° C | 64% | 1015 hPa | 0 mm | - | - | - |
| 1778077443 | 6.11° C | 64% | 1015.1 hPa | 0 mm | - | - | - |
| 1778077083 | 6.11° C | 66% | 1015.1 hPa | 0 mm | - | - | - |
| 1778076723 | 5.56° C | 67% | 1015.2 hPa | 0 mm | - | - | - |
| 1778076364 | 5.56° C | 70% | 1015.1 hPa | 0 mm | - | - | - |
| 1778076004 | 5.56° C | 71% | 1015.1 hPa | 0 mm | - | - | - |
| 1778075643 | 5.56° C | 68% | 1015.1 hPa | 0 mm | - | - | - |
| 1778075283 | 5.56° C | 70% | 1015.2 hPa | 0 mm | - | - | - |
* Rain latest hour (hover to see other rain measurements)
** Current wind speed in m/s (hover to see current wind gust speed)